NOAA 16 DEB, 41429

Orbit data source: Space-Track

NOAA 16 DEB, 41429 is space debris in LEO originally from a launch on Thu, 21 Sep 2000 UTC launched from the Air Force Western Test Range (AFWTR). Debris objects in space refer to the collection of defunct objects orbiting the Earth. Examples of debris include non-operational satellites, rocket bodies, and fragments generated from explosions, collisions, or faulty payload assembly.

Loading next visibility...
NOAA 16 DEB details
Identifier
41429, 2000-055LJ
Orbit
LEO
Last TLE update18 hours ago
Origin
Flag of USNOAA (US)
ManufacturerUnknown
MissionSpacecraft
Bus & MotorUnknown
MassUnknown
Launch date (UTC)
2000-09-21 (24 years ago)
Launch vehicleUnknown
Launch site
Air Force Western Test Range (AFWTR)
Object type
Payload
Rocket body
Debris
Shape & HBRUnknown
Radar Cross SectionSmall (<0.1 m²)

Expand to show TLE details & history

TLE from 18 hours ago
0 NOAA 16 DEB
1 41429U 00055LJ  24347.66560527  .00005227  00000-0  22768-2 0  9990
2 41429  98.7367  64.3705 0018999 152.0335 208.1869 14.24305511454409
Epoch: 2024-12-12T15:58Z
Definitive object data (Epoch: 2024-12-12T15:58:28.295Z)
Latitude
Longitude102.90993°
Altitude825.795 km
Speed7.434 km/s
True Right ascension04h 17m 28s
True Declination0° 00' 00"
Sunlit
Object was in full shadow at TLE epoch
Visualization TLE readout
Latitude-10.44106°
Longitude-77.96904°
Altitude805.268 km
Speed7.456 km/s
Apparent Right ascension17h 49m 49s
Apparent Declination-27° 13' 45"
Sunlit
Object is in daylight
Visualization observer readout
Local Sidereal Time08:13:16
Azimuth77.921° E
Elevation-57.812°
Doppler factor1
Orbital elements
Apogee altitude821.636 km
Perigee altitude794.33 km
Semi-major axis7,186.12 km
Eccentricity0.0018999
Inclination98.7367°
RAAN64.3705°
Arg. of periapsis152.0335°
True anomaly208.08428°
Mean anomaly208.1869°
Eccentric anomaly208.13557°
Mean motion3.56288 °/min
BSTAR0.0022768
Orbital period101.04 mins
Loading maneuver chart data...
Loading historical data...
Loading historical data...
Loading historical data...
Loading historical data...
Loading historical data...
Loading historical data...
Loading historical data...

NOAA 16 DEB Visibility forecast

Observer location: undefined°, undefined

Span
Click to sort rows by Start time (UTC) header in descending order
Start Az.
Max El. time (UTC)
Max El. Az.
Max El.
End time (UTC)
End Az.
9 mins2024-12-13 17:50:27.350Z24.286° NE2024-12-13 17:55:27.350Z107.675° ESE38.448°2024-12-13 17:59:27.350Z174.103° S
5 mins2024-12-13 19:32:27.350Z328.459° NNW2024-12-13 19:34:27.350Z301.374° NW18.306°2024-12-13 19:37:27.350Z260.819° W
10 mins2024-12-14 05:10:27.350Z160.622° S2024-12-14 05:15:27.350Z65.94° ENE44.599°2024-12-14 05:20:27.350Z348.876° N
|